Tracking 29892 objects as of 21-Nov-2024
HD Live streaming from Space Station
objects crossing your sky now

DELTA 1 DEB

Track DELTA 1 DEB now!
10-day predictions


NORAD ID: 7025
Int'l Code: 1973-086R
Perigee: 1,515.7 km
Apogee: 2,283.9 km
Inclination: 101.9 °
Period: 124.8 minutes
Semi major axis: 8270 km
RCS: 0.2672 m2 (medium)
Launch date: November 6, 1973
Source: United States (US)
Launch site: AIR FORCE WESTERN TEST RANGE (AFWTR)

Note: This is SATELLITE DEBRIS
Your satellite tracking list
Your tracking list is empty




NASA's NSSDC Master Catalog

Two Line Element Set (TLE):
1  7025U 73086R   24325.95304463 -.00000267  00000-0 -38503-2 0  9996
2  7025 101.9486  35.8758 0464431  15.2313  26.4143 11.54197132151357
Source of the keplerian elements: AFSPC